Weather in Akbuk

Turkey     40°58′28″N   33°52′51″E
temp.,
°C
wind,
m/s
gust,
m/s
humid.,
%
clouds,
%
prec.,
mm/h
press.,
hPa
HPBL,
m
17 august, wed
wed1700:00+17nnw22740 0.0 101418
03:00+16n11810 0.0 101411
06:00+15nne01840 0.0 101311
09:00+21ene11600 0.0 1012510
12:00+25wsw02409 0.0 10111978
15:00+27n333216 0.0 10092451
18:00+25nnw453889 0.0 1010820
21:00+19n22620 0.1 101227
18 august, thu
thu1800:00+17n11686 0.1 101215
03:00+17nnw11703 0.1 101213
06:00+16nnw11720 0.0 101213
09:00+21nne12480 0.0 1012603
12:00+25ne21340 0.0 10102125
15:00+27ne232862 0.0 10082699
18:00+25n333297 0.0 10091214
21:00+19n32620 0.0 101238
19 august, fri
fri1900:00+17n11661 0.0 101215
03:00+16nnw11680 0.0 101112
06:00+15nnw11700 0.0 101112
09:00+20nne11490 0.0 1011638
12:00+24ene223753 0.0 10092197
15:00+23nnw334495 0.1 1009893
18:00+22n225234 0.3 1009444
21:00+17n227528 0.4 101131
20 august, sat
sat2000:00+16n11805 0.1 101214
03:00+15n11862 0.1 101212
06:00+14nnw11880 0.0 101213
09:00+19ene22644 0.0 1011654
12:00+23ene224539 0.3 10101699
15:00+24n224274 0.4 10091514
18:00+23n124895 0.1 1009455
21:00+19ne22630 0.1 101035
21 august, sun
sun2100:00+16ne11790 0.0 101012
03:00+15nne01840 0.0 101011
06:00+15n00830 0.0 100911
09:00+20ese11610 0.0 1009391
12:00+26sse02399 0.0 10061897
15:00+27nne223462 0.1 10042226
18:00+25nne224297 0.2 1005781
21:00+21n22554 0.2 100621